Wind_Speed
16 16 17 17 18 18 18 19 20 20 21 22 23 25 26 28 30 32 33 33 34 36 38 40 41 43 45 46 47 48 49 49 49 48 48 48 48 49 49 49 48 47 47
18 19 19 20 20 21 21 22 23 24 25 26 27 28 29 31 33 35 37 37 38 39 40 42 44 46 48 49 51 52 53 53 53 52 52 51 51 51 51 51 51 50 50
21 22 22 23 24 24 25 27 27 28 29 30 31 33 34 35 37 39 40 41 42 42 43 45 47 49 51 53 54 56 56 57 57 57 56 55 54 54 53 53 53 53 52
25 25 26 26 28 28 29 31 32 33 35 36 37 38 39 40 41 42 44 45 46 48 49 50 51 52 54 56 58 59 59 60 60 60 59 58 58 57 56 56 55 55 54
28 29 29 30 31 32 33 35 36 37 39 41 42 43 43 45 47 48 49 50 51 53 54 56 57 57 58 59 61 62 63 63 63 62 61 60 59 58 58 57 57 57 57
31 31 31 33 35 35 37 38 40 41 43 44 46 47 48 49 51 53 54 55 56 58 59 60 61 62 63 63 64 65 65 63 62 62 61 60 59 58 57 57 57 57 58
33 34 33 35 36 38 40 41 42 44 45 47 49 50 51 53 55 56 58 59 61 62 63 64 64 65 66 66 66 65 63 61 59 59 58 57 57 55 55 55 55 55 56
37 36 37 37 39 41 42 43 45 47 49 51 52 53 54 55 57 59 61 62 63 64 65 66 67 67 67 66 64 62 60 58 56 54 54 53 53 52 52 52 52 53 54
39 38 39 41 42 44 45 46 47 50 52 53 54 56 57 58 59 61 64 65 65 66 67 68 68 67 66 64 62 59 57 55 54 52 52 51 51 51 51 50 51 51 52
42 41 41 43 45 47 48 49 50 51 52 54 56 58 59 60 60 61 63 65 66 67 68 68 67 65 63 61 58 57 55 54 53 52 52 51 51 51 51 51 51 51 51
44 43 43 45 47 49 50 51 52 53 55 56 58 59 60 61 61 62 63 65 66 67 68 67 65 62 60 58 57 56 55 55 54 55 55 55 55 54 54 54 53 53 52
45 44 45 47 49 50 51 52 53 54 55 56 57 58 60 61 62 64 65 66 67 67 67 65 63 61 59 58 58 57 57 57 57 58 58 59 59 59 59 59 58 57 56
45 46 47 49 51 52 52 52 53 54 55 56 57 59 61 62 64 65 67 68 68 67 66 64 62 61 61 60 60 60 60 60 60 61 62 63 63 63 63 62 62 61 60
47 48 50 51 51 52 53 53 53 54 55 57 58 59 61 63 65 67 68 68 68 66 65 64 63 63 63 63 63 63 63 63 63 64 65 65 65 65 65 65 64 64 63
49 51 52 52 54 55 54 53 54 55 55 57 58 60 62 64 66 68 68 69 69 67 65 65 65 65 65 65 64 64 63 63 63 63 63 63 63 63 64 64 64 64 65
51 53 54 56 57 55 54 54 55 55 56 58 60 62 64 66 67 68 69 69 69 69 68 67 66 65 63 62 60 59 58 57 56 56 57 56 57 57 58 60 61 62 63
54 55 57 58 56 55 55 55 56 56 57 58 60 62 64 66 67 68 69 69 69 69 69 65 63 60 56 53 51 50 49 48 47 46 47 48 48 49 51 53 55 57 59
56 57 58 57 56 57 55 54 54 56 58 60 61 63 64 66 67 68 68 67 66 65 63 58 53 49 47 45 43 42 41 40 40 40 41 41 42 43 44 46 47 50 53
57 59 59 60 59 57 54 54 55 57 59 60 62 64 65 66 66 65 65 63 60 57 53 48 43 41 39 38 38 36 35 35 35 34 34 34 35 36 38 40 41 43 45
61 62 62 61 58 55 53 54 56 57 59 60 62 63 64 63 63 61 57 54 50 47 43 40 36 34 34 34 32 30 29 29 29 29 29 29 29 30 31 33 35 36 38
64 62 60 56 55 53 52 54 56 57 59 60 61 61 60 59 56 52 48 44 41 37 34 32 29 29 29 27 26 24 23 22 23 23 22 23 23 24 25 26 28 29 32
61 60 55 52 51 51 52 54 56 57 58 58 58 56 54 51 47 43 40 36 34 31 28 26 25 23 21 20 18 17 16 16 16 17 17 17 18 19 20 21 22 24 26
58 53 50 49 49 50 52 54 55 55 55 54 52 49 45 42 39 36 32 29 27 24 21 20 18 15 14 13 12 12 12 11 11 13 13 13 14 14 16 17 18 20 23
52 50 48 48 49 50 51 52 52 51 49 47 44 40 36 34 32 28 24 21 18 16 15 13 11 10 9 9 9 8 9 9 9 10 10 10 11 12 12 14 15 18 20
48 46 47 47 48 49 48 48 47 45 41 38 35 32 29 27 23 20 17 14 12 11 9 8 7 7 7 7 8 8 8 8 8 9 9 9 9 9 10 11 13 16 19
45 46 46 46 46 45 44 42 40 36 33 30 28 26 23 20 17 14 11 9 7 6 5 5 6 6 7 7 8 9 9 8 8 8 8 8 7 8 8 9 10 12 16
Wind_Direction
292 292 294 293 292 290 287 285 284 282 281 282 283 285 286 288 288 290 291 291 290 289 288 287 286 286 285 284 283 282 280 277 275 272 269 267 266 265 264 263 261 261 261
287 289 291 292 291 289 288 286 285 283 282 282 283 284 286 288 290 291 291 291 290 289 289 288 288 287 286 285 284 282 281 279 276 274 271 268 265 263 263 262 261 260 260
284 286 287 288 288 288 288 287 285 284 282 282 283 285 287 289 291 292 292 292 291 290 290 289 288 287 286 285 283 282 281 279 277 275 273 270 267 264 262 262 261 260 259
283 284 286 286 286 288 287 286 287 286 284 284 284 285 287 289 290 291 291 291 292 291 290 289 288 286 285 284 283 282 281 279 278 276 273 271 268 265 264 262 260 259 258
283 284 285 286 286 287 287 287 287 287 286 286 286 287 288 289 290 290 290 290 290 290 290 289 287 286 285 283 281 281 279 278 277 275 273 270 268 266 264 262 260 259 258
283 284 286 287 287 289 289 289 290 289 288 288 287 287 288 289 289 288 288 289 289 289 289 289 288 286 285 283 282 281 280 278 276 274 271 269 267 265 264 263 261 259 258
285 284 287 287 288 289 290 291 290 289 288 288 287 286 286 287 287 287 287 287 288 288 289 288 287 286 285 284 283 281 279 277 274 272 270 267 266 265 264 262 261 260 257
288 286 287 288 289 290 290 290 290 290 289 288 287 286 286 286 287 287 287 287 287 288 288 288 287 287 286 285 283 281 279 276 273 270 268 266 265 264 263 262 261 259 257
290 289 289 288 288 290 290 289 288 289 289 288 287 287 287 287 287 288 288 288 289 289 289 289 289 288 288 286 284 281 278 274 271 268 266 264 263 263 263 262 261 259 257
291 290 289 289 290 291 292 291 289 289 290 289 288 287 288 288 287 287 289 290 291 291 291 290 290 289 287 285 283 280 276 272 269 266 265 263 263 263 262 261 261 260 258
291 291 290 291 291 293 294 292 291 291 291 291 290 290 290 290 290 289 289 291 292 293 292 292 291 289 287 284 282 278 274 271 268 266 265 264 263 263 262 261 261 260 258
291 292 292 293 293 295 294 293 293 293 292 292 291 292 292 292 292 292 292 292 293 293 293 293 291 289 287 284 282 279 275 272 269 267 266 265 264 264 263 262 261 260 258
291 293 293 293 294 295 296 295 295 294 293 292 292 292 293 293 294 294 294 294 293 293 293 293 291 288 286 284 282 280 277 274 271 269 268 267 265 264 263 262 261 259 258
293 295 294 295 296 297 297 297 296 295 294 293 293 294 295 295 295 296 296 295 294 293 293 292 290 288 287 285 283 281 279 276 274 271 269 268 267 265 264 262 261 259 257
293 294 294 296 296 297 296 297 297 297 296 295 295 296 296 297 297 297 296 296 295 293 292 291 289 288 287 286 284 282 279 277 275 273 271 269 267 266 264 261 260 258 256
293 294 295 295 295 297 298 298 298 297 296 297 297 298 298 298 298 297 296 296 295 294 292 291 290 289 288 286 284 282 280 278 275 273 272 269 267 264 262 260 258 256 254
293 294 294 294 295 297 298 298 298 298 298 298 299 299 299 298 298 297 297 296 296 295 294 293 291 290 288 286 284 282 281 278 276 272 270 268 265 263 260 258 256 254 251
293 294 294 294 296 298 298 298 298 298 299 299 299 299 299 299 298 298 298 297 296 296 295 295 293 291 289 286 285 283 281 278 275 272 270 268 264 262 260 257 255 252 249
293 293 294 294 294 295 297 298 298 299 299 300 300 300 300 300 300 299 299 298 298 297 297 296 294 291 288 287 286 284 281 279 276 273 269 266 264 261 258 255 253 250 247
293 293 293 293 293 295 297 298 299 300 300 301 301 302 302 302 301 301 300 300 299 299 298 297 295 291 290 289 287 285 282 278 275 272 270 266 262 259 257 254 251 247 243
291 293 293 294 296 298 299 299 300 300 301 302 303 303 304 303 303 302 302 302 301 301 300 299 297 294 292 290 288 286 282 278 276 274 270 266 263 259 255 252 248 243 239
293 294 295 297 299 301 301 301 301 302 303 304 305 305 305 305 304 304 304 303 302 301 301 300 299 297 295 293 291 289 287 281 277 275 273 270 267 261 255 249 244 239 235
295 295 297 300 302 303 302 302 303 304 305 306 306 306 306 306 307 307 306 304 303 303 302 303 304 304 303 301 300 298 296 291 284 280 279 275 270 263 256 249 244 239 234
294 297 300 302 303 302 302 303 304 306 307 307 307 308 309 310 310 310 309 308 307 307 308 311 313 314 316 318 318 314 311 307 299 293 289 284 279 272 263 254 247 240 233
300 303 303 303 303 303 304 305 307 308 308 308 310 312 314 315 314 315 316 315 314 315 321 328 335 341 345 345 341 336 329 322 316 310 307 302 295 286 275 263 253 244 235
303 304 304 304 304 306 307 308 309 310 310 311 313 316 318 319 319 323 326 330 337 349 0 5 7 10 7 3 359 355 350 343 336 329 325 317 309 299 286 274 262 249 240
Height
5857 5856 5855 5854 5853 5852 5851 5850 5850 5849 5848 5846 5845 5844 5843 5841 5839 5837 5836 5835 5834 5832 5831 5829 5827 5826 5824 5823 5822 5821 5820 5820 5819 5819 5820 5820 5820 5821 5822 5823 5824 5825 5826
5853 5852 5851 5850 5849 5848 5847 5845 5845 5844 5842 5841 5839 5838 5836 5834 5832 5830 5827 5826 5824 5823 5821 5819 5817 5815 5813 5812 5810 5809 5808 5808 5807 5807 5807 5808 5808 5809 5810 5811 5812 5814 5815
5850 5848 5847 5846 5844 5843 5842 5840 5839 5838 5836 5835 5833 5831 5829 5827 5824 5822 5819 5816 5814 5812 5811 5809 5807 5804 5802 5800 5798 5796 5795 5794 5793 5793 5794 5794 5795 5796 5797 5798 5800 5801 5803
5845 5844 5843 5841 5839 5838 5836 5834 5833 5831 5829 5827 5825 5823 5821 5818 5815 5813 5810 5807 5804 5802 5799 5797 5795 5792 5790 5787 5785 5782 5781 5779 5779 5778 5779 5779 5780 5781 5783 5784 5786 5788 5790
5840 5838 5837 5835 5832 5831 5829 5827 5825 5823 5821 5818 5816 5814 5811 5809 5805 5802 5799 5796 5793 5790 5787 5784 5781 5779 5776 5773 5770 5768 5766 5764 5763 5763 5763 5763 5764 5766 5767 5769 5771 5774 5777
5834 5832 5831 5828 5825 5824 5822 5819 5817 5814 5811 5809 5806 5803 5801 5798 5795 5791 5787 5784 5781 5777 5774 5770 5766 5763 5760 5758 5755 5752 5750 5748 5747 5746 5746 5747 5748 5749 5751 5754 5756 5759 5762
5828 5825 5824 5821 5819 5816 5813 5811 5808 5805 5802 5798 5796 5793 5791 5787 5783 5779 5775 5771 5768 5764 5760 5755 5751 5747 5744 5741 5739 5736 5734 5732 5731 5730 5730 5730 5731 5733 5735 5738 5740 5743 5746
5820 5818 5816 5814 5811 5807 5805 5802 5799 5795 5791 5787 5784 5781 5778 5776 5770 5765 5761 5757 5753 5749 5744 5739 5735 5730 5726 5724 5721 5719 5717 5716 5715 5715 5714 5715 5716 5718 5720 5723 5725 5728 5731
5812 5810 5808 5805 5801 5798 5795 5792 5788 5784 5780 5775 5771 5767 5764 5761 5757 5751 5745 5741 5737 5732 5727 5722 5717 5713 5709 5706 5704 5702 5701 5700 5700 5700 5700 5701 5702 5704 5706 5708 5710 5713 5716
5803 5800 5798 5795 5791 5787 5784 5779 5775 5771 5767 5762 5757 5753 5749 5745 5741 5738 5732 5725 5720 5715 5710 5705 5700 5696 5691 5689 5687 5686 5685 5684 5685 5685 5685 5686 5687 5689 5691 5693 5696 5699 5702
5793 5790 5788 5785 5780 5776 5772 5767 5762 5758 5753 5748 5743 5738 5733 5729 5725 5721 5717 5711 5705 5698 5693 5688 5683 5679 5675 5672 5670 5669 5668 5668 5669 5669 5669 5670 5672 5674 5676 5678 5681 5684 5687
5783 5780 5777 5773 5768 5764 5759 5754 5750 5744 5739 5734 5729 5724 5719 5713 5708 5704 5700 5695 5689 5683 5677 5671 5666 5662 5658 5655 5653 5652 5651 5651 5652 5652 5652 5653 5655 5657 5659 5661 5664 5668 5671
5772 5770 5765 5761 5756 5751 5746 5741 5736 5731 5726 5720 5715 5709 5704 5698 5692 5687 5682 5677 5672 5667 5661 5655 5649 5645 5641 5638 5635 5634 5633 5633 5633 5633 5633 5634 5636 5638 5640 5643 5646 5650 5654
5761 5758 5753 5748 5743 5738 5733 5728 5723 5717 5712 5707 5701 5695 5690 5683 5677 5670 5664 5658 5654 5650 5644 5639 5632 5627 5623 5619 5617 5614 5613 5613 5612 5612 5612 5613 5615 5617 5620 5623 5626 5630 5634
5749 5746 5741 5736 5731 5725 5720 5714 5709 5703 5698 5692 5686 5680 5674 5668 5661 5654 5647 5640 5634 5631 5628 5622 5615 5609 5604 5600 5596 5594 5593 5592 5590 5590 5591 5592 5593 5595 5598 5601 5605 5609 5614
5737 5733 5728 5723 5717 5712 5706 5701 5695 5690 5684 5678 5672 5665 5658 5651 5644 5637 5629 5622 5615 5609 5607 5603 5596 5590 5584 5580 5576 5574 5572 5571 5570 5570 5570 5571 5572 5574 5576 5580 5583 5588 5593
5725 5720 5715 5709 5703 5698 5692 5687 5681 5676 5670 5663 5657 5650 5643 5635 5628 5620 5612 5605 5597 5589 5585 5582 5575 5570 5565 5561 5558 5556 5554 5553 5553 5552 5552 5552 5554 5555 5557 5560 5564 5568 5573
5712 5706 5700 5695 5689 5684 5679 5673 5668 5662 5656 5649 5642 5634 5627 5619 5611 5603 5595 5587 5579 5572 5565 5562 5558 5553 5549 5546 5544 5542 5540 5538 5538 5537 5537 5537 5538 5540 5541 5543 5546 5550 5554
5698 5692 5686 5681 5675 5670 5665 5660 5654 5648 5641 5634 5627 5619 5611 5603 5595 5586 5578 5570 5563 5556 5550 5546 5544 5540 5537 5533 5531 5530 5528 5526 5525 5525 5525 5525 5525 5526 5527 5529 5532 5535 5539
5684 5678 5672 5666 5661 5657 5652 5646 5640 5634 5627 5620 5612 5604 5595 5587 5579 5570 5563 5556 5549 5543 5538 5534 5531 5529 5526 5523 5521 5519 5518 5516 5515 5515 5515 5515 5515 5515 5516 5518 5520 5523 5526
5670 5664 5658 5653 5648 5644 5639 5632 5627 5620 5613 5606 5597 5589 5580 5572 5563 5556 5550 5544 5538 5533 5529 5525 5522 5520 5518 5515 5513 5511 5510 5509 5508 5507 5507 5507 5507 5507 5508 5509 5511 5513 5517
5656 5651 5646 5641 5636 5631 5625 5619 5613 5606 5599 5591 5583 5575 5566 5559 5552 5545 5540 5534 5530 5526 5522 5519 5516 5514 5511 5509 5508 5506 5505 5504 5503 5502 5501 5501 5500 5501 5501 5502 5504 5506 5509
5644 5639 5634 5629 5624 5618 5612 5606 5599 5592 5585 5577 5570 5562 5555 5548 5542 5537 5531 5527 5523 5519 5517 5514 5512 5510 5508 5506 5505 5503 5501 5500 5499 5498 5497 5497 5496 5496 5496 5497 5498 5500 5503
5633 5628 5622 5616 5612 5607 5600 5594 5586 5579 5572 5565 5558 5552 5546 5540 5534 5529 5525 5522 5519 5516 5514 5512 5510 5508 5506 5505 5503 5501 5500 5498 5497 5495 5494 5493 5493 5492 5492 5492 5493 5495 5498
5620 5615 5610 5605 5600 5594 5588 5581 5574 5567 5561 5555 5549 5544 5539 5534 5529 5525 5522 5519 5517 5515 5513 5511 5509 5508 5506 5504 5503 5501 5499 5497 5496 5494 5492 5491 5490 5489 5489 5489 5489 5491 5493
5609 5604 5599 5594 5588 5582 5576 5569 5563 5558 5553 5547 5543 5538 5534 5530 5527 5523 5520 5518 5516 5515 5513 5512 5510 5509 5507 5505 5503 5501 5499 5497 5495 5493 5491 5489 5488 5487 5486 5486 5485 5486 5488